STARLINK-36367, 67629

Orbit data source: Space-Track

STARLINK-36367, 67629 is a payload satellite owned by SpaceX/Seattle (US) in LEO that was launched on Fri, 30 Jan 2026 UTC via an FALCON 9 launch vehicle from the Air Force Eastern Test Range (AFETR). Payload-class satellites include a variety of spacecraft equipped with specific instruments for various scientific and technological missions. These include communications satellites like Starlink; space stations such as the ISS; scientific satellites like the Hubble; Earth observation satellites from companies like Planet Labs, Umbra, and HawkEye 360; GPS; miniature CubeSats for education and research; and military/defense satellites.

Loading next visibility...
Identifier
67629, 2026-020N
Orbit
LEO
Country
Flag of USUS
Related business
Manufacturer
SpaceX/Seattle
Mission
Operational spacecraft
Bus & Motor
STARLINK V2MO, Unknown motor
Mass
575 kg wet, ~530 kg dry
Launch date (UTC)
2026-01-30 (1 week ago)
Launch vehicle
FALCON 9
Launch site
Air Force Eastern Test Range (AFETR)
Object type
Payload
Rocket body
Debris
Shape & HBR
Unknown
Radar Cross Section
RCS unknown

Expand to show TLE details & history
Last TLE update: 9 hours ago

TLE from 9 hours ago
0 STARLINK-36367
1 67629U 26020N   26037.58335648 -.01955319  10331-2 -57953-2 0  9996
2 67629  43.0002 331.5198 0001882 262.8057  87.1062 15.91753640  2399
Epoch: 2026-02-06T14:00Z
TLE epoch observation values (Epoch: 2026-02-06T14:00:01.999Z)
Latitude
-6.94675°
Longitude
-22.67256°
Altitude
298.243 km
Speed
7.73 km/s
True Right ascension
21h 36m 13s
True Declination
-6° 54' 10"
Sunlit
Object was in daylight at epoch
Visualization orbit readout
Latitude
Unknown
Longitude
Unknown
Altitude
Unknown
Speed
Unknown
Apparent Right ascension
Unknown
Apparent Declination
Unknown
Sunlit
N/A
Visualization observer readout
Local Sidereal Time
00:46:55
Azimuth
Unknown
Elevation
Unknown
Doppler factor
Unknown
Orbital elements
Apogee altitude
300.631 km
Perigee altitude
298.118 km
Semi-major axis
6,677.511 km
Eccentricity
0.00019
Inclination
43.0002°
RAAN
331.5198°
Arg. of periapsis
262.8057°
True anomaly
87.12774°
Mean anomaly
87.1062°
Eccentric anomaly
87.11697°
Mean motion
3.9776 °/min
Orbital period
90.51 mins
BSTAR
-0.0057953
Loading maneuver chart data...
Computing Atmospheric mass density...
Loading historical data...
Loading historical data...
Loading historical data...
Loading historical data...
Loading historical data...
Loading historical data...
Loading historical data...

Documentation

Showing up to 5 results
|